Location: Logan
(41.7360°N, 111.8340°W)
Time: 08:03:23
(UTC-06:00)

Daily predictions for brighter satellites

Satellite Brightness Start Highest point End
(mag) Time Altitude Azimuth Time Altitude Azimuth Time Altitude Azimuth
Cosmos 1437 Rocket 4.1 20:11:38 10° SSW 20:15:32 47° WNW 20:19:30 10° N
GPS 2-05 Rocket1 4.3 20:14:43 10° SW 20:17:41 25° S 20:20:42 10° ESE
Cosmos 2278 Rocket 2.4 20:14:18 10° SSW 20:19:58 79° WNW 20:25:42 10° NNE
Cosmos 1470 4.2 20:18:26 10° SE 20:21:14 19° E 20:24:03 10° NE
ATLAS 5 CENTAUR R/B 2.4 20:17:54 10° S 20:22:04 33° ESE 20:26:32 10° NE
Cosmos 1125 Rocket 3.6 20:17:39 10° S 20:22:39 52° ESE 20:27:43 10° NNE
SeaSat 1 2.5 20:18:29 10° SE 20:23:20 62° ENE 20:28:13 10° NNW
Cosmos 1766 Rocket 4.5 20:19:26 10° NNE 20:23:25 30° ENE 20:27:21 10° SE
Cosmos 1048 Rocket 4.3 20:20:07 10° N 20:25:05 47° ENE 20:30:01 10° SE
Cosmos-2242 4.1 20:21:59 10° SE 20:25:22 23° E 20:28:46 10° NE
HJ-1C 3.3 20:24:58 10° SSE 20:28:21 76° ENE 20:31:47 10° N
GP-B 4.0 20:25:52 10° SE 20:29:39 28° E 20:33:28 10° NNE
USA 186 2.7 20:29:38 13° E 20:30:26 15° ENE 20:31:51 10° NNE
Cosmos 2344 4.0 20:23:39 10° SW 20:31:16 72° NW 20:40:01 10° NNE
SJ-6B 3.3 20:29:32 10° S 20:33:12 60° W 20:36:56 10° NNW
H-2A R/B 2.8 20:30:58 10° SSE 20:34:49 64° ENE 20:38:45 10° N
Cosmos 1340 Rocket 4.0 20:32:00 10° NNE 20:35:18 24° ENE 20:38:08 12° ESE
BREEZE-M DEB (TANK) 4.0 20:34:26 10° NW 20:36:09 17° N 20:38:00 10° ENE
Cosmos 2297 3.7 20:32:42 10° SSW 20:38:21 68° ESE 20:44:04 10° NNE
Resurs 01 Rocket 1.6 20:34:57 10° SSE 20:39:20 72° ENE 20:43:45 10° N
ISS -3.6 20:39:26 10° SW 20:42:35 49° SE 20:45:27 12° ENE
Meteor 1-29 4.1 20:44:56 10° NE 20:47:49 24° E 20:50:30 11° SSE
Cosmos 2082 Rocket 2.2 20:44:24 10° NNW 20:50:08 79° ENE 20:55:47 10° SSE
SAR-Lupe-4 3.8 20:50:51 13° SE 20:53:53 47° ENE 20:57:21 10° N
Cosmos 1743 Rocket 4.4 20:50:38 10° NNE 20:54:34 30° ENE 20:56:52 19° ESE
Cosmos 1605 Rocket 4.4 20:49:24 10° SSW 20:55:39 69° W 21:02:02 10° N
COSMOS 2487 2.4 20:53:33 10° NNW 20:57:09 87° WSW 21:00:43 10° SSE
Cosmos 2100 Rocket 4.1 20:53:33 10° SSE 20:59:41 56° E 21:05:54 10° NNE
Cosmos 1271 Rocket 2.9 20:56:12 10° S 21:00:07 55° E 21:04:04 10° NNE
Cosmos 1758 3.9 20:58:08 10° SSW 21:02:04 60° W 21:06:02 10° N
Cosmos 2251 Rocket 4.2 21:01:57 10° N 21:06:51 36° ENE 21:09:13 24° ESE
Cosmos 1674 2.6 21:03:21 10° N 21:07:09 88° E 21:10:58 10° S
Cosmos 1953 3.1 21:04:22 10° SSW 21:08:22 55° W 21:12:21 10° N
Cosmos 1269 Rocket 4.3 21:04:08 10° NNW 21:09:24 69° WSW 21:14:38 10° S
Cosmos 372 Rocket 4.1 21:05:15 10° SSW 21:10:22 78° WNW 21:15:33 10° NNE
SAR-Lupe-1 3.9 21:10:23 22° SSE 21:12:35 71° ENE 21:16:11 10° N
BREEZE-M DEB (TANK) 3.2 21:09:50 10° SW 21:13:09 59° SE 21:23:44 10° ENE
Cosmos 158 Rocket 4.1 21:08:18 10° NNW 21:13:28 75° WSW 21:18:43 10° SSE
Cosmos 1408 Rocket 3.7 21:09:50 10° N 21:14:20 78° W 21:18:47 10° S
Resurs 1-3 4.3 21:10:20 10° S 21:14:37 55° W 21:18:56 10° NNW
Lacrosse 5 3.9 21:10:22 10° W 21:14:39 27° NNW 21:18:56 10° NNE
Meteor 1-4 Rocket 4.3 21:14:31 10° SW 21:17:42 33° WNW 21:20:54 10° N
Cosmos 2151 4.0 21:15:01 10° NNE 21:18:38 28° ENE 21:18:38 28° ENE
Cosmos 1939 Rocket 3.2 21:18:51 34° SE 21:20:13 49° ENE 21:24:14 10° N
Helios 1B rocket 2.3 21:16:14 10° NNE 21:20:23 82° ESE 21:24:30 10° SSW
SPOT 5 4.4 21:22:08 21° ENE 21:22:37 21° ENE 21:26:32 10° NNE
USA 215 3.6 21:17:21 10° ENE 21:23:25 40° SE 21:29:28 10° SSW
Cosmos 1802 Rocket 3.9 21:17:29 10° S 21:23:33 67° E 21:29:40 10° NNE
TIMED 4.4 21:21:33 10° S 21:25:53 69° ESE 21:30:15 10° NNE
Lacrosse 5 rocket 1.1 21:25:05 10° NW 21:29:00 77° SW 21:29:53 50° SSE
SJ-11-01 4.2 21:26:56 29° SSE 21:29:19 70° ENE 21:34:02 10° N
Cosmos 1842 Rocket 3.6 21:27:30 31° SSE 21:29:22 54° E 21:33:39 10° NNE
CZ-3B DEB 4.1 21:21:50 10° W 21:30:01 32° NNW 21:34:16 10° NNE
Cosmos 494 Rocket 3.9 21:32:30 10° NNW 21:37:36 65° ENE 21:39:05 44° SE
Cosmos 2369 Rocket 3.6 21:43:23 22° ENE 21:43:23 22° ENE 21:45:39 10° NE
Cosmos 2061 Rocket 4.1 21:34:35 10° S 21:40:59 83° W 21:47:28 10° N
Cosmos 1184 Rocket 2.8 21:38:34 10° N 21:41:45 77° NNW 21:41:45 77° NNW
Helios 1A 3.9 21:39:34 14° S 21:42:55 46° W 21:46:58 10° NNW
Cosmos 1459 Rocket 4.2 21:39:01 10° SSW 21:45:14 71° W 21:51:25 10° N
Envisat 3.2 21:48:54 25° S 21:51:54 67° WSW 21:56:58 10° NNW
Cosmos 1833 Rocket 4.1 21:48:23 10° NW 21:53:25 35° WSW 21:58:19 11° SSW
Cosmos 2173 Rocket 4.4 21:47:33 10° SSW 21:53:39 62° W 21:59:53 10° N
Gblst 52 Del rocket 4.1 21:47:48 10° SW 21:53:41 62° SE 21:54:41 53° E
Cosmos 2233 Rocket 4.4 21:54:44 41° E 21:54:44 41° E 22:00:02 10° NNE
USA 267 4.3 21:53:31 23° ENE 21:56:26 33° NNE 22:02:08 10° NW
Cosmos 1864 Rocket 4.4 21:56:05 28° S 21:59:39 74° E 22:05:56 10° N
NOAA 11 4.3 22:01:17 52° ENE 22:01:25 52° ENE 22:06:45 10° N
ERS-1 Rocket 2.8 22:03:15 69° SSE 22:03:53 86° ENE 22:08:57 10° NNW
Cosmos 1356 Rocket 3.8 22:02:37 10° NNW 22:06:39 59° W 22:06:39 59° W
ATLAS 5 CENTAUR R/B 3.5 22:02:21 10° WSW 22:06:41 34° NW 22:11:24 10° NNE
H-2A R/B 3.4 22:11:38 27° NE 22:11:38 27° NE 22:14:55 10° N
ISS -1.3 22:16:21 10° W 22:18:09 22° NW 22:18:09 22° NW
Cosmos 2221 4.3 22:22:44 25° NNE 22:22:44 25° NNE 22:24:34 10° N
CZ-4C R/B 4.4 22:33:39 14° NE 22:33:39 14° NE 22:34:23 10° NE
MetOp-A 4.1 22:30:36 78° NW 22:30:36 78° NW 22:35:41 10° NNW
H-2A R/B 4.5 22:34:14 14° NNE 22:34:14 14° NNE 22:34:53 10° N
Cosmos 1725 Rocket 4.4 22:31:57 25° SSW 22:35:37 58° W 22:41:45 10° N
ARGOS 3.5 22:36:47 59° N 22:36:47 59° N 22:41:08 10° NNW
MOS 1-B Rocket 4.4 22:52:02 80° E 22:52:10 80° ENE 22:59:05 10° NNW
Lacrosse 5 4.4 22:56:30 10° NW 22:59:12 14° N 23:01:14 12° NNE
SPOT 5 4.0 23:01:23 46° WNW 23:01:23 46° WNW 23:05:28 10° NNW
USA 215 3.6 23:00:10 10° NE 23:06:35 62° NW 23:13:00 10° WSW
Terra 4.0 23:09:57 20° N 23:09:57 20° N 23:11:27 10° N
Cosmos 2369 Rocket 3.6 23:25:00 35° NW 23:25:00 35° NW 23:29:44 10° N
USA 267 3.9 23:40:51 49° NW 23:40:51 49° NW 23:45:28 10° NW
Cosmos 2227 Rocket 4.5 23:36:23 10° N 23:38:07 16° NNE 23:38:07 16° NNE
Cosmos 1943 Rocket 4.3 23:51:45 20° N 23:51:45 20° N 23:53:33 10° NNE
H-2A R/B 4.2 23:52:16 23° NW 23:52:16 23° NW 23:54:31 10° NNW
